Simultaneous Nadir Overpasses (SNOs) Predictions

Prediction of SNOs between NPP and TERRA Satellite Orbit:

Table of predicted SNOs for the next 14.0 days since TLE Epoch: 6/7/2015
Index Date (NPP) Time (NPP) Lat,Lon (NPP) SZA (NPP ) Date (TERRA) Time (TERRA) Lat,Lon (TERRA) SZA (TERRA ) Distance(km) Time Diff (sec)
1 06/09/2015 08:11:51 68.90, 56.23 45.88 06/09/2015 08:12:45 68.88, 56.25 45.85 2.34 54
2 06/09/2015 09:02:32 -68.77,-136.28 134.26 06/09/2015 09:02:15 -68.76,-136.26 134.27 1.30 17
3 06/09/2015 09:53:03 67.94, 32.10 44.91 06/09/2015 09:51:54 67.99, 30.45 44.97 69.15 69
4 06/12/2015 00:28:44 68.84, 172.07 45.62 06/12/2015 00:29:16 68.85, 172.08 45.62 0.77 32
5 06/12/2015 01:19:25 -68.71, -20.43 134.52 06/12/2015 01:18:46 -68.74, -20.42 134.50 2.92 39
6 06/14/2015 15:55:02 -69.45, 119.69 133.92 06/14/2015 15:56:12 -69.30, 120.89 134.09 49.76 70
7 06/14/2015 16:45:36 68.79, -72.09 45.41 06/14/2015 16:45:46 68.80, -72.10 45.42 1.30 10
8 06/14/2015 17:36:18 -68.71, 95.34 134.68 06/14/2015 17:35:16 -68.69, 95.40 134.69 2.89 62
9 06/17/2015 08:11:46 -68.92,-123.80 134.56 06/17/2015 08:12:49 -68.91,-123.74 134.58 2.91 63
10 06/17/2015 09:02:29 68.74, 43.74 45.26 06/17/2015 09:02:17 68.74, 43.70 45.26 1.76 12
11 06/17/2015 09:53:04 -68.28,-148.34 135.21 06/17/2015 09:51:52 -68.36,-149.14 135.13 33.75 72
12 06/20/2015 00:28:38 -68.82, -7.90 134.72 06/20/2015 00:29:20 -68.83, -7.95 134.71 2.41 42
13 06/20/2015 01:19:22 68.71, 159.56
